Location: Dackenheim
(49.5215°N, 8.1854°E)
Time: 13:44:37
(UTC+00:00)

AO-7 - Visible Passes

Search period start: 10 March 2026 00:00
Search period end: 20 March 2026 00:00
Orbit: 1440 x 1458 km, 102.0° (Epoch: 10 March)

Date Brightness Start Highest point End Pass type
(mag) Time Alt. Az. Time Alt. Az. Time Alt. Az.
10 Mar ? 04:54:29 10° NE 05:01:34 29° E 05:08:36 10° SSE visible
10 Mar ? 17:51:19 10° SSW 17:58:55 39° W 18:06:36 10° NNW visible
11 Mar ? 03:57:30 10° ENE 04:00:19 12° E 04:03:08 10° ESE visible
11 Mar ? 18:47:05 10° SW 18:52:37 19° W 18:58:11 10° NW visible
12 Mar ? 04:47:30 10° NE 04:54:19 27° E 05:01:05 10° SSE visible
12 Mar ? 17:43:56 10° SSW 17:51:41 42° W 17:59:32 10° NNW visible
13 Mar ? 03:51:59 10° ENE 03:52:59 10° E 03:53:58 10° E visible
13 Mar ? 18:39:21 10° SW 18:45:19 21° W 18:51:20 10° NW visible
14 Mar ? 04:40:33 10° NE 04:47:03 24° E 04:53:30 10° SE visible
15 Mar ? 18:31:43 10° SW 18:38:02 24° W 18:44:26 10° NW visible
16 Mar ? 04:33:38 10° NE 04:39:47 22° E 04:45:53 10° SE visible
17 Mar ? 18:24:07 10° SW 18:30:46 26° W 18:37:29 10° NW visible
18 Mar ? 04:26:46 10° NE 04:32:30 20° E 04:38:10 10° SE visible
18 Mar ? 19:22:19 10° W 19:24:47 11° W 19:27:16 10° WNW visible
19 Mar ? 18:16:35 10° SSW 18:23:30 29° W 18:30:31 10° NW visible
